FENGYUN 1C DEB, 30152

Orbit data source: Space-Track

FENGYUN 1C DEB, 30152 is space debris in SSO originally from a launch on Mon, 10 May 1999 UTC launched from the Taiyaun Space Center, China (TSC). Fengyun 1C debris stems from the Chinese weather satellite Fengyun-1C, which was intentionally destroyed by a Chinese anti-satellite missile in 2007. This event dramatically increased the amount of space debris, with thousands of trackable fragments posing hazards to satellites and human spaceflight. The Fengyun 1C debris cloud has become a focal point in discussions about space sustainability and the need for international regulations to prevent the creation of new debris.

Loading next visibility...
Identifier
30152, 1999-025TH
Orbit
SSO
Country
Flag of CNCN / PRC
Related business
Manufacturer
Unknown
Mission
Spacecraft
Bus & Motor
Unknown
Mass
Unknown
Launch date (UTC)
1999-05-10 (27 years ago)
Launch vehicle
Unknown
Launch site
Taiyaun Space Center, China (TSC)
Object type
Payload
Rocket body
Debris
Shape & HBR
Unknown shape, 0.1 m
Radar Cross Section
Small (<0.1 m²)

Expand to show TLE details & history
Last TLE update: 23 hours ago

TLE from 23 hours ago
0 FENGYUN 1C DEB
1 30152U 99025TH  26070.55935662  .00002430  00000-0  15855-2 0  9997
2 30152  99.0842 292.2773 0159292 202.6073 156.8019 13.97279523966183
Epoch: 2026-03-11T13:25Z
TLE epoch observation values (Epoch: 2026-03-11T13:25:28.411Z)
Latitude
-0.00006°
Longitude
-78.31292°
Altitude
1,013.012 km
Speed
7.291 km/s
True Right ascension
19h 29m 06s
True Declination
0° 00' 00"
Sunlit
Object was in daylight at epoch
Visualization orbit readout
Latitude
Unknown
Longitude
Unknown
Altitude
Unknown
Speed
Unknown
Apparent Right ascension
Unknown
Apparent Declination
Unknown
Sunlit
N/A
Visualization observer readout
Local Sidereal Time
17:08:01
Azimuth
Unknown
Elevation
Unknown
Doppler factor
Unknown
Orbital elements
Apogee altitude
1,016.379 km
Perigee altitude
784.495 km
Semi-major axis
7,278.574 km
Eccentricity
0.01593
Inclination
99.0842°
RAAN
292.2773°
Arg. of periapsis
202.6073°
True anomaly
157.50798°
Mean anomaly
156.8019°
Eccentric anomaly
157.15622°
Mean motion
3.49521 °/min
Orbital period
103 mins
BSTAR
0.0015855
Loading maneuver chart data...
Computing Atmospheric mass density...
Loading historical data...
Loading historical data...
Loading historical data...
Loading historical data...
Loading historical data...
Loading historical data...
Loading historical data...

Documentation

Showing up to 5 results
|